Location: Carpenters Acres
(42.9822°N, 73.8619°W)
Time: 14:17:40
(UTC+00:00)

Daily predictions for brighter satellites

Satellite Brightness Start Highest point End
(mag) Time Altitude Azimuth Time Altitude Azimuth Time Altitude Azimuth
Meteor 1-25 Rocket 4.2 21:41:51 10° N 21:47:27 73° E 21:53:04 10° SSE
Cosmos 540 Rocket 3.5 21:45:12 10° SSW 21:50:18 85° ESE 21:55:27 10° NNE
NOAA 6 4.3 21:46:38 10° SE 21:51:29 45° ENE 21:56:21 10° N
USA 234 3.7 21:45:38 10° E 21:51:42 43° NNE 21:57:48 10° NW
CZ-2C R/B 4.0 21:51:33 10° NE 21:55:04 18° E 21:58:34 10° SE
Cosmos 1782 3.0 21:51:24 10° S 21:55:17 52° E 21:59:10 10° NNE
Cosmos 1743 Rocket 3.8 21:51:00 10° N 21:55:20 77° W 21:59:39 10° S
COSMOS 2406 3.5 21:51:20 10° SSW 21:57:05 76° WNW 22:02:50 10° NNE
NOSS 2-2 (D) 4.4 21:56:13 10° NNW 22:01:34 71° NE 22:09:05 10° SE
SL-24 R/B - RUBIN 2 3.5 21:58:44 10° NNW 22:03:14 71° NE 22:07:30 10° SE
CZ-4C R/B 3.1 21:58:29 10° NNW 22:05:37 58° NE 22:13:56 10° SE
Cosmos 2279 Rocket 4.4 21:59:57 10° SSE 22:05:44 43° E 22:11:32 10° NNE
Cosmos 1666 Rocket 4.1 22:02:28 10° N 22:06:35 36° ENE 22:10:39 10° SE
Cosmos 1666 3.4 22:03:38 10° NNE 22:06:55 29° ENE 22:10:12 10° SE
Cosmos 1627 Rocket 4.4 22:00:46 10° N 22:06:56 74° E 22:13:02 10° SSE
USA 307 4.5 22:04:57 10° NW 22:08:11 20° N 22:11:04 12° ENE
Okean O Rocket 3.0 22:07:49 10° ESE 22:10:54 19° ENE 22:14:00 10° NNE
CZ-4B R/B 3.9 22:07:14 10° ESE 22:11:48 29° ENE 22:16:20 10° N
SMAP 3.0 22:07:28 10° SSE 22:12:05 70° ENE 22:16:44 10° N
Meteor 2-14 Rocket 4.4 22:06:22 10° N 22:12:29 74° E 22:18:32 10° SSE
Lacrosse 5 rocket 2.1 22:14:02 10° NNW 22:17:35 32° NNE 22:20:52 12° E
Cosmos 1814 Rocket 4.0 22:13:29 10° S 22:18:40 70° ESE 22:23:49 10° NNE
PAYLOAD B 4.4 22:17:44 10° SE 22:23:09 53° ENE 22:28:34 10° N
Cosmos 1570 Rocket 4.0 22:18:05 10° S 22:23:16 66° ESE 22:28:28 10° NNE
Sich 1 3.2 22:20:03 10° N 22:24:22 77° W 22:28:41 10° S
SKYMED 2 4.5 22:21:17 10° NE 22:25:05 29° E 22:28:51 10° SSE
CZ-2C R/B 3.2 22:22:26 10° SW 22:25:48 22° SSE 22:29:06 10° ESE
Cosmos 1634 Rocket 4.1 22:20:39 10° S 22:26:59 83° W 22:33:22 10° N
Cosmos 2360 Rocket 3.7 22:23:49 10° N 22:27:12 16° NE 22:28:09 15° ENE
MOS 1-B Rocket 4.3 22:21:57 10° NNE 22:27:58 55° ESE 22:34:53 10° S
Cosmos 2026 Rocket 4.1 22:22:49 10° N 22:28:57 78° W 22:34:59 10° S
USA 308 4.3 22:27:36 10° NW 22:31:02 23° NNE 22:32:48 18° NE
PSLV R/B 3.6 22:27:43 10° SSE 22:31:22 63° ENE 22:35:05 10° N
ISS -3.3 22:28:32 10° WNW 22:31:54 62° SW 22:35:14 10° SE
Cosmos 44 Rocket 3.5 22:27:36 10° NNW 22:32:22 47° NE 22:36:58 10° SE
deb Chang Zheng 4 4.2 22:29:17 10° SE 22:33:08 33° ENE 22:37:02 10° N
Cosmos 1812 2.7 22:31:46 10° S 22:35:35 87° W 22:39:28 10° N
Meteor 2-21 Rocket 4.4 22:33:54 10° N 22:40:02 89° E 22:46:05 10° S
Aureole 3 Rocket 4.4 22:39:56 10° SE 22:43:39 26° E 22:47:35 13° NNE
Cosmos 1544 3.7 22:42:29 10° NNE 22:45:45 31° ENE 22:49:00 10° SE
Cosmos 1818 3.5 22:40:41 10° NNW 22:46:09 64° NE 22:51:32 10° SE
Cosmos 2322 Rocket 2.8 22:44:47 10° N 22:49:56 33° NE 22:52:57 20° ESE
Cosmos 1515 Rocket 3.9 22:47:22 10° SSE 22:51:34 44° E 22:54:13 21° NNE
Meteor 1-10 Rocket 4.3 22:47:15 10° S 22:52:53 58° E 22:58:26 10° NNE
Cosmos 1980 Rocket 3.1 22:48:15 10° NW 22:53:44 52° WSW 22:59:09 10° S
Meteor 1-11 Rocket 4.0 22:50:30 10° N 22:55:55 45° ENE 23:01:26 10° SSE
USA 305 3.8 22:52:19 10° NW 22:56:06 30° NNE 22:56:42 28° NE
Cosmos 1356 Rocket 3.9 22:53:05 10° N 22:57:03 38° ENE 23:01:01 10° SE
Cosmos 921 Rocket 2.8 22:53:55 10° SSW 22:58:06 79° ESE 23:00:52 21° NNE
APEX 2.9 22:54:34 10° SSW 22:58:25 63° ESE 22:59:13 46° ENE
SJ-11-01 4.3 22:54:43 10° SSE 22:59:22 59° ENE 23:04:02 10° N
Cosmos 2208 Rocket 4.3 22:56:11 10° SSW 23:01:34 73° WNW 23:06:56 11° NNE
Cosmos 2180 Rocket 4.5 22:55:26 10° S 23:01:46 89° ESE 23:08:04 10° N
USA 267 3.7 22:56:58 18° NE 23:01:51 55° NNW 23:08:10 10° WSW
Cosmos 1655 Rocket 4.0 22:58:01 10° N 23:04:23 65° E 23:10:40 10° SSE
Tiangong 3.4 23:02:35 10° S 23:04:10 15° SSE 23:04:10 15° SSE
COSMOS 2455 4.2 22:59:07 10° WSW 23:04:35 35° NW 23:10:05 10° NNE
DEBRIS 3.5 23:03:31 10° SSW 23:05:51 34° SE 23:05:58 34° SE
Cosmos 2150 Rocket 3.9 23:01:42 10° NNW 23:06:53 66° ENE 23:12:06 10° SSE
CZ-4 R/B 4.3 23:03:31 10° SSE 23:07:36 64° ENE 23:11:42 10° N
YAOGAN 3 4.4 23:03:23 10° SSE 23:07:42 68° ENE 23:12:03 10° N
Cosmos 1867 3.8 23:03:53 10° S 23:09:06 48° ESE 23:10:44 37° ENE
SL-16 R/B 2.2 23:04:30 10° NNW 23:10:08 60° ENE 23:15:43 10° SE
H-2A R/B 2.4 23:05:28 10° S 23:10:33 65° WSW 23:15:35 10° NNW
Cosmos 2082 Rocket 3.6 23:05:36 10° WSW 23:10:44 34° NW 23:15:53 10° N
ARGOS 3.0 23:07:17 10° SSE 23:12:42 79° ENE 23:18:07 10° N
COSMO-SKYMED 1 2.5 23:09:47 16° NNE 23:13:17 85° WNW 23:17:36 10° SSW
Feng Yun 1-1 Rocket 4.4 23:09:25 10° SE 23:15:10 55° ENE 23:20:51 10° N
Cosmos 1125 Rocket 3.4 23:10:09 10° NNW 23:15:25 73° ENE 23:20:41 10° SSE
Cosmos 1633 Rocket 4.1 23:11:21 10° NNW 23:15:35 47° W 23:19:47 10° SSW
USA 32 4.0 23:11:33 10° SSE 23:16:39 57° E 23:19:45 24° NNE
Landsat 5 3.2 23:23:02 55° NNE 23:23:52 87° ESE 23:27:47 10° SSW
X-37B 1.8 23:21:10 10° WSW 23:23:02 35° SW 23:23:02 35° SW
SL-08 RB Rocket 3.6 23:19:41 10° SSE 23:24:17 72° ENE 23:28:53 10° N
Cosmos 2333 Rocket 3.9 23:23:32 10° N 23:25:38 18° NNE 23:25:38 18° NNE
USA 306 3.7 23:24:30 10° NW 23:27:42 37° N 23:27:42 37° N
USA 234 3.4 23:28:31 13° SE 23:34:27 73° SW 23:41:01 10° NW
CZ-2C R/B 3.1 23:30:40 10° N 23:35:44 56° WNW 23:40:46 10° SSW
ATLAS 2AS CENTAUR R/B 4.3 23:31:59 10° NNW 23:36:50 18° NNE 23:36:57 18° NNE
Cosmos 2219 Rocket 4.2 23:34:51 10° N 23:35:57 14° N 23:35:57 14° N
Cosmos 1933 Rocket 3.7 23:37:45 10° NNW 23:42:04 70° W 23:46:22 10° S
NOSS 3-3 (A) 3.7 23:37:33 10° SSW 23:43:05 66° ESE 23:43:32 63° E
NOSS 3-3 (C) 3.7 23:37:39 10° SSW 23:43:11 65° ESE 23:43:37 63° E
Okean O Rocket 2.6 23:42:37 10° S 23:46:53 46° W 23:51:12 10° NNW
USA 307 4.3 23:44:41 10° NW 23:47:06 30° NNW 23:47:06 30° NNW
DMSP 5D-2 F-14 4.5 23:43:51 10° SSE 23:49:17 81° ENE 23:54:45 10° NNW
CZ-4B R/B 4.5 23:47:11 10° SSW 23:52:12 39° W 23:57:11 10° NNW
ATLAS 5 CENTAUR R/B 3.5 23:52:17 10° NW 23:54:52 26° NW 23:54:52 26° NW
